| time (UTC) | temp F | wind direction | speed MPH | gust MPH | rain 1hr in | rain 24hr in | rain mn in | humidity % | barometer mb |
| 20260905191635 | 64 | 174 | 2.0 | 2.0 | 0.00 | 0.00 | 0.00 | 100 | |
| 20260905191135 | 64 | 165 | 3.0 | 5.0 | 0.00 | 0.00 | 0.00 | 100 | |
| 20260905190635 | 64 | 188 | 2.0 | 3.0 | 0.00 | 0.00 | 0.00 | 100 | |
| 20260905190135 | 65 | 180 | 4.0 | 8.0 | 0.00 | 0.00 | 0.00 | 100 | |
| 20260905185634 | 64 | 177 | 4.0 | 6.0 | 0.00 | 0.00 | 0.00 | 100 | |
| 20260905185135 | 65 | 169 | 6.0 | 8.0 | 0.00 | 0.00 | 0.00 | 100 | |
| 20260905184634 | 65 | 167 | 5.0 | 8.0 | 0.00 | 0.00 | 0.00 | 100 | |
| 20260905184134 | 65 | 172 | 6.0 | 10.0 | 0.00 | 0.00 | 0.00 | 100 | |
| 20260905183634 | 65 | 172 | 5.0 | 6.0 | 0.00 | 0.00 | 0.00 | 100 | |
| 20260905183134 | 65 | 174 | 4.0 | 7.0 | 0.00 | 0.00 | 0.00 | 100 | |
| 20260905182634 | 65 | 167 | 6.0 | 11.0 | 0.00 | 0.00 | 0.00 | 100 | |
| 20260905182133 | 65 | 174 | 4.0 | 9.0 | 0.00 | 0.00 | 0.00 | 100 | |
| 20260905181633 | 65 | 168 | 4.0 | 7.0 | 0.00 | 0.00 | 0.00 | 100 | |
| 20260905181133 | 65 | 160 | 3.0 | 5.0 | 0.00 | 0.00 | 0.00 | 100 | |
| 20260905180630 | 65 | 175 | 4.0 | 6.0 | 0.00 | 0.00 | 0.00 | 100 | |
| 20260905180130 | 66 | 158 | 5.0 | 9.0 | 0.00 | 0.00 | 0.00 | 100 | |
| 20260905175629 | 66 | 180 | 4.0 | 7.0 | 0.00 | 0.00 | 0.00 | 100 | |
| 20260905175129 | 66 | 157 | 3.0 | 5.0 | 0.00 | 0.00 | 0.00 | 100 | |
| 20260905174629 | 66 | 176 | 3.0 | 4.0 | 0.00 | 0.00 | 0.00 | 100 | |
| 20260905174129 | 66 | 169 | 3.0 | 4.0 | 0.00 | 0.00 | 0.00 | 100 | |
| 20260905173629 | 66 | 168 | 3.0 | 4.0 | 0.00 | 0.00 | 0.00 | 100 | |
| 20260905173128 | 66 | 177 | 4.0 | 6.0 | 0.00 | 0.00 | 0.00 | 100 | |
| 20260905172628 | 66 | 176 | 4.0 | 5.0 | 0.00 | 0.00 | 0.00 | 100 | |
| 20260905172118 | 67 | 179 | 5.0 | 8.0 | 0.00 | 0.00 | 0.00 | 100 | |
| 20260905171618 | 67 | 184 | 5.0 | 10.0 | 0.00 | 0.00 | 0.00 | 100 | |
| 20260905171117 | 67 | 185 | 4.0 | 10.0 | 0.00 | 0.00 | 0.00 | 100 | |
| 20260905170617 | 67 | 177 | 5.0 | 7.0 | 0.00 | 0.00 | 0.00 | 100 | |
| 20260905170117 | 68 | 174 | 6.0 | 10.0 | 0.00 | 0.00 | 0.00 | 100 | |
| 20260905165617 | 68 | 178 | 7.0 | 9.0 | 0.00 | 0.00 | 0.00 | 100 | |
| 20260905165117 | 68 | 177 | 7.0 | 9.0 | 0.00 | 0.00 | 0.00 | 100 | |
| 20260905164617 | 68 | 177 | 9.0 | 13.0 | 0.00 | 0.00 | 0.00 | 100 | |
| 20260905164116 | 68 | 189 | 5.0 | 9.0 | 0.00 | 0.00 | 0.00 | 100 | |
| 20260905163616 | 69 | 181 | 7.0 | 13.0 | 0.00 | 0.00 | 0.00 | 100 | |
| 20260905163116 | 69 | 159 | 11.0 | 17.0 | 0.00 | 0.00 | 0.00 | 100 | |
| 20260905162616 | 69 | 150 | 7.0 | 10.0 | 0.00 | 0.00 | 0.00 | 100 | |
| 20260905161613 | 69 | 155 | 7.0 | 15.0 | 0.00 | 0.00 | 0.00 | 100 | |
| 20260905160612 | 70 | 161 | 7.0 | 11.0 | 0.00 | 0.00 | 0.00 | 100 | |
| 20260905160112 | 70 | 151 | 9.0 | 14.0 | 0.00 | 0.00 | 0.00 | 100 | |
| 20260905155612 | 70 | 149 | 8.0 | 14.0 | 0.00 | 0.00 | 0.00 | 100 | |
| 20260905155112 | 70 | 152 | 7.0 | 12.0 | 0.00 | 0.00 | 0.00 | 100 | |
| 20260905154611 | 70 | 149 | 8.0 | 15.0 | 0.00 | 0.00 | 0.00 | 100 | |
| 20260905154111 | 70 | 154 | 7.0 | 11.0 | 0.00 | 0.00 | 0.00 | 100 | |
| 20260905153611 | 71 | 157 | 5.0 | 9.0 | 0.00 | 0.00 | 0.00 | 100 | |
| 20260905153111 | 70 | 150 | 8.0 | 11.0 | 0.00 | 0.00 | 0.00 | 100 | |
| 20260905152610 | 70 | 166 | 6.0 | 10.0 | 0.00 | 0.00 | 0.00 | 100 | |
| 20260905152110 | 71 | 160 | 5.0 | 11.0 | 0.00 | 0.00 | 0.00 | 100 | |
| 20260905151610 | 71 | 156 | 6.0 | 8.0 | 0.00 | 0.00 | 0.00 | 100 | |
| 20260905150610 | 71 | 161 | 4.0 | 7.0 | 0.00 | 0.00 | 0.00 | 100 | |
| 20260905150109 | 71 | 175 | 5.0 | 7.0 | 0.00 | 0.00 | 0.00 | 100 | |
| 20260905145851 | 71 | 162 | 5.0 | 9.0 | 0.00 | 0.00 | 0.00 | 100 | |
| 20260905145351 | 71 | 150 | 6.0 | 10.0 | 0.00 | 0.00 | 0.00 | 100 | |
| 20260905144851 | 70 | 150 | 7.0 | 10.0 | 0.00 | 0.00 | 0.00 | 100 | |
| 20260905144351 | 70 | 165 | 6.0 | 11.0 | 0.00 | 0.00 | 0.00 | 100 | |
| 20260905143850 | 70 | 142 | 10.0 | 14.0 | 0.00 | 0.00 | 0.00 | 100 | |
| 20260905143350 | 70 | 142 | 9.0 | 15.0 | 0.00 | 0.00 | 0.00 | 100 | |
| 20260905142850 | 70 | 139 | 11.0 | 14.0 | 0.00 | 0.00 | 0.00 | 100 | |
| 20260905142350 | 71 | 139 | 11.0 | 17.0 | 0.00 | 0.00 | 0.00 | 100 | |
| 20260905141850 | 71 | 160 | 6.0 | 13.0 | 0.00 | 0.00 | 0.00 | 100 | |
| 20260905141350 | 70 | 160 | 5.0 | 8.0 | 0.00 | 0.00 | 0.00 | 100 | |
| 20260905140850 | 70 | 160 | 6.0 | 10.0 | 0.00 | 0.00 | 0.00 | 100 | |
| 20260905134839 | 70 | 146 | 14.0 | 21.0 | 0.00 | 0.00 | 0.00 | 100 | |
| 20260905134339 | 70 | 139 | 13.0 | 17.0 | 0.00 | 0.00 | 0.00 | 100 | |
| 20260905133838 | 70 | 137 | 9.0 | 14.0 | 0.00 | 0.00 | 0.00 | 100 | |
| 20260905133338 | 70 | 145 | 9.0 | 14.0 | 0.00 | 0.00 | 0.00 | 100 | |
| 20260905132838 | 70 | 147 | 7.0 | 11.0 | 0.00 | 0.00 | 0.00 | 100 | |
| 20260905132338 | 69 | 144 | 8.0 | 12.0 | 0.00 | 0.00 | 0.00 | 100 | |
| 20260905131838 | 69 | 142 | 13.0 | 22.0 | 0.00 | 0.00 | 0.00 | 100 | |
| 20260905131337 | 70 | 157 | 7.0 | 13.0 | 0.00 | 0.00 | 0.00 | 100 | |
| 20260905130837 | 68 | 147 | 9.0 | 12.0 | 0.00 | 0.00 | 0.00 | 100 | |
| 20260905130337 | 68 | 142 | 11.0 | 16.0 | 0.00 | 0.00 | 0.00 | 100 | |
| 20260905125837 | 68 | 143 | 7.0 | 11.0 | 0.00 | 0.00 | 0.00 | 100 | |
| 20260905125337 | 69 | 145 | 12.0 | 20.0 | 0.00 | 0.00 | 0.00 | 100 | |
| 20260905124837 | 70 | 151 | 8.0 | 11.0 | 0.00 | 0.00 | 0.00 | 100 | |
| 20260905124336 | 69 | 148 | 12.0 | 18.0 | 0.00 | 0.00 | 0.00 | 100 | |
| 20260905123836 | 68 | 151 | 9.0 | 16.0 | 0.00 | 0.00 | 0.00 | 100 | |
| 20260905123336 | 68 | 142 | 9.0 | 13.0 | 0.00 | 0.00 | 0.00 | 100 | |
| 20260905122836 | 68 | 145 | 12.0 | 16.0 | 0.00 | 0.00 | 0.00 | 100 | |
| 20260905122336 | 69 | 148 | 10.0 | 16.0 | 0.00 | 0.00 | 0.00 | 100 | |
| 20260905121835 | 69 | 142 | 13.0 | 22.0 | 0.00 | 0.00 | 0.00 | 100 | |
| 20260905121335 | 70 | 147 | 9.0 | 12.0 | 0.00 | 0.00 | 0.00 | 100 | |
| 20260905120835 | 69 | 146 | 11.0 | 18.0 | 0.00 | 0.00 | 0.00 | 100 | |
| 20260905120335 | 70 | 152 | 10.0 | 19.0 | 0.00 | 0.00 | 0.00 | 100 | |
| 20260905115835 | 69 | 151 | 9.0 | 16.0 | 0.00 | 0.00 | 0.00 | 100 | |
| 20260905115334 | 69 | 143 | 8.0 | 12.0 | 0.00 | 0.00 | 0.00 | 100 | |
| 20260905114834 | 69 | 146 | 10.0 | 12.0 | 0.00 | 0.00 | 0.00 | 100 | |
| 20260905114334 | 68 | 140 | 13.0 | 18.0 | 0.00 | 0.00 | 0.00 | 100 | |
| 20260905113834 | 68 | 145 | 9.0 | 13.0 | 0.00 | 0.00 | 0.00 | 100 | |
| 20260905113334 | 68 | 145 | 10.0 | 14.0 | 0.00 | 0.00 | 0.00 | 100 | |
| 20260905112821 | 68 | 154 | 9.0 | 14.0 | 0.00 | 0.00 | 0.00 | 100 | |
| 20260905112321 | 68 | 148 | 12.0 | 17.0 | 0.00 | 0.00 | 0.00 | 100 | |
| 20260905111820 | 67 | 150 | 12.0 | 17.0 | 0.00 | 0.00 | 0.00 | 100 | |
| 20260905111320 | 68 | 144 | 13.0 | 19.0 | 0.00 | 0.00 | 0.00 | 100 | |
| 20260905110820 | 68 | 149 | 10.0 | 23.0 | 0.00 | 0.00 | 0.00 | 100 | |
| 20260905110320 | 68 | 152 | 9.0 | 13.0 | 0.00 | 0.00 | 0.00 | 100 | |
| 20260905105820 | 68 | 162 | 9.0 | 13.0 | 0.00 | 0.00 | 0.00 | 100 | |
| 20260905105320 | 67 | 159 | 10.0 | 16.0 | 0.00 | 0.00 | 0.00 | 100 | |
| 20260905104819 | 67 | 147 | 12.0 | 17.0 | 0.00 | 0.00 | 0.00 | 100 | |
| 20260905104319 | 67 | 151 | 10.0 | 16.0 | 0.00 | 0.00 | 0.00 | 100 | |
| 20260905103819 | 67 | 145 | 13.0 | 18.0 | 0.00 | 0.00 | 0.00 | 100 | |
| 20260905103319 | 68 | 151 | 10.0 | 14.0 | 0.00 | 0.00 | 0.00 | 100 | |
| 20260905102819 | 67 | 142 | 8.0 | 14.0 | 0.00 | 0.00 | 0.00 | 100 | |
| 20260905102319 | 67 | 143 | 11.0 | 18.0 | 0.00 | 0.00 | 0.00 | 100 | |
| 20260905101819 | 66 | 147 | 11.0 | 19.0 | 0.00 | 0.00 | 0.00 | 100 | |
| 20260905101318 | 66 | 142 | 10.0 | 17.0 | 0.00 | 0.00 | 0.00 | 100 | |
| 20260905100818 | 66 | 139 | 12.0 | 18.0 | 0.00 | 0.00 | 0.00 | 100 | |
| 20260905100318 | 66 | 138 | 11.0 | 16.0 | 0.00 | 0.00 | 0.00 | 100 | |
| 20260905095818 | 66 | 143 | 11.0 | 17.0 | 0.00 | 0.00 | 0.00 | 100 | |
| 20260905095317 | 66 | 131 | 10.0 | 14.0 | 0.00 | 0.00 | 0.00 | 100 | |
| 20260905091816 | 65 | 139 | 6.0 | 12.0 | 0.00 | 0.00 | 0.00 | 100 | |
| 20260905091314 | 64 | 147 | 5.0 | 8.0 | 0.00 | 0.00 | 0.00 | 100 | |
| 20260905090814 | 63 | 152 | 7.0 | 10.0 | 0.00 | 0.00 | 0.00 | 100 | |
| 20260905090314 | 63 | 144 | 8.0 | 12.0 | 0.00 | 0.00 | 0.00 | 100 | |
| 20260905085814 | 63 | 173 | 6.0 | 10.0 | 0.00 | 0.00 | 0.00 | 100 | |
| 20260905085306 | 63 | 173 | 6.0 | 10.0 | 0.00 | 0.00 | 0.00 | 100 | |
| 20260905084803 | 62 | 181 | 4.0 | 7.0 | 0.00 | 0.00 | 0.00 | 100 | |
| 20260905084303 | 62 | 178 | 8.0 | 13.0 | 0.00 | 0.00 | 0.00 | 100 | |
| 20260905083303 | 62 | 177 | 4.0 | 5.0 | 0.00 | 0.00 | 0.00 | 100 | |
| 20260905082803 | 61 | 179 | 6.0 | 9.0 | 0.00 | 0.00 | 0.00 | 100 | |
| 20260905082306 | 61 | 181 | 5.0 | 8.0 | 0.00 | 0.00 | 0.00 | 100 | |
| 20260905081302 | 60 | 175 | 3.0 | 5.0 | 0.00 | 0.00 | 0.00 | 100 | |
| 20260905080302 | 60 | 172 | 4.0 | 7.0 | 0.00 | 0.00 | 0.00 | 100 | |
| 20260905075802 | 60 | 202 | 3.0 | 5.0 | 0.00 | 0.00 | 0.00 | 100 | |
| 20260905075305 | 60 | 185 | 3.0 | 5.0 | 0.00 | 0.00 | 0.00 | 100 | |
| 20260905074801 | 60 | 182 | 4.0 | 4.0 | 0.00 | 0.00 | 0.00 | 100 | |
| 20260905074301 | 60 | 178 | 5.0 | 8.0 | 0.00 | 0.00 | 0.00 | 100 | |
| 20260905073801 | 60 | 171 | 4.0 | 6.0 | 0.00 | 0.00 | 0.00 | 100 | |
| 20260905073301 | 60 | 175 | 4.0 | 6.0 | 0.00 | 0.00 | 0.00 | 100 | |
| 20260905072300 | 61 | 182 | 4.0 | 6.0 | 0.00 | 0.00 | 0.00 | 100 | |
| 20260905071800 | 60 | 159 | 8.0 | 12.0 | 0.00 | 0.00 | 0.00 | 100 | |
| 20260905071300 | 60 | 173 | 4.0 | 6.0 | 0.00 | 0.00 | 0.00 | 100 | |
| 20260905070800 | 61 | 179 | 5.0 | 7.0 | 0.00 | 0.00 | 0.00 | 100 | |
| 20260905070300 | 60 | 180 | 5.0 | 8.0 | 0.00 | 0.00 | 0.00 | 100 | |
| 20260905065759 | 61 | 177 | 5.0 | 9.0 | 0.00 | 0.00 | 0.00 | 100 | |
| 20260905065259 | 60 | 178 | 3.0 | 6.0 | 0.00 | 0.00 | 0.00 | 100 | |
| 20260905064759 | 60 | 161 | 4.0 | 8.0 | 0.00 | 0.00 | 0.00 | 100 | |
| 20260905063759 | 61 | 156 | 3.0 | 4.0 | 0.00 | 0.00 | 0.00 | 100 | |
| 20260905063259 | 61 | 171 | 1.0 | 1.0 | 0.00 | 0.00 | 0.00 | 100 | |
| 20260905062758 | 61 | 161 | 2.0 | 3.0 | 0.00 | 0.00 | 0.00 | 100 | |
| 20260905062258 | 61 | 157 | 2.0 | 2.0 | 0.00 | 0.00 | 0.00 | 100 | |
| 20260905061245 | 60 | 179 | 2.0 | 2.0 | 0.00 | 0.00 | 0.00 | 100 | |
| 20260905060745 | 60 | 179 | 2.0 | 2.0 | 0.00 | 0.00 | 0.00 | 100 | |
| 20260905060245 | 60 | 179 | 2.0 | 3.0 | 0.00 | 0.00 | 0.00 | 100 | |
| 20260905055745 | 60 | 191 | 2.0 | 2.0 | 0.00 | 0.00 | 0.00 | 100 | |
| 20260905055244 | 59 | 207 | 3.0 | 4.0 | 0.00 | 0.00 | 0.00 | 100 | |
| 20260905054744 | 60 | 201 | 3.0 | 4.0 | 0.00 | 0.00 | 0.00 | 100 | |
| 20260905053744 | 60 | 196 | 2.0 | 2.0 | 0.00 | 0.00 | 0.00 | 100 | |
| 20260905053243 | 60 | 173 | 2.0 | 2.0 | 0.00 | 0.00 | 0.00 | 100 | |
| 20260905052743 | 60 | 173 | 2.0 | 3.0 | 0.00 | 0.00 | 0.00 | 100 | |
| 20260905052243 | 60 | 306 | 2.0 | 2.0 | 0.00 | 0.00 | 0.00 | 100 | |
| 20260905051743 | 61 | 112 | 2.0 | 4.0 | 0.00 | 0.00 | 0.00 | 100 | |
| 20260905051242 | 61 | 58 | 2.0 | 2.0 | 0.00 | 0.00 | 0.00 | 100 | |
| 20260905050742 | 60 | 108 | 2.0 | 2.0 | 0.00 | 0.00 | 0.00 | 100 | |
| 20260905050242 | 60 | 208 | 3.0 | 3.0 | 0.00 | 0.00 | 0.00 | 100 | |
| 20260905045742 | 60 | 208 | 3.0 | 4.0 | 0.00 | 0.00 | 0.00 | 100 | |
| 20260905045241 | 61 | 242 | 2.0 | 2.0 | 0.00 | 0.00 | 0.00 | 100 | |
| 20260905044741 | 60 | 231 | 2.0 | 3.0 | 0.00 | 0.00 | 0.00 | 100 | |
| 20260905044241 | 61 | 219 | 2.0 | 2.0 | 0.00 | 0.00 | 0.00 | 100 | |
| 20260905043741 | 62 | 219 | 2.0 | 2.0 | 0.00 | 0.00 | 0.00 | 100 | |
| 20260905043241 | 60 | 219 | 2.0 | 2.0 | 0.00 | 0.00 | 0.00 | 100 | |
| 20260905042741 | 60 | 202 | 3.0 | 4.0 | 0.00 | 0.00 | 0.00 | 100 | |
| 20260905042240 | 60 | 214 | 2.0 | 3.0 | 0.00 | 0.00 | 0.00 | 100 | |
| 20260905041740 | 61 | 190 | 2.0 | 3.0 | 0.00 | 0.00 | 0.00 | 100 | |
| 20260905041240 | 61 | 196 | 2.0 | 2.0 | 0.00 | 0.00 | 0.00 | 100 | |
| 20260905040740 | 62 | 196 | 2.0 | 2.0 | 0.00 | 0.00 | 0.00 | 100 | |
| 20260905040240 | 62 | 229 | 2.0 | 3.0 | 0.00 | 0.00 | 0.00 | 100 | |
| 20260905035740 | 62 | 244 | 1.0 | 1.0 | 0.00 | 0.00 | 0.00 | 100 | |
| 20260905035239 | 62 | 245 | 1.0 | 1.0 | 0.00 | 0.00 | 0.00 | 100 | |
| 20260905034739 | 62 | 239 | 2.0 | 2.0 | 0.00 | 0.00 | 0.00 | 100 | |
| 20260905034229 | 62 | 241 | 2.0 | 2.0 | 0.00 | 0.00 | 0.00 | 100 | |
| 20260905033729 | 63 | 267 | 3.0 | 4.0 | 0.00 | 0.00 | 0.00 | 100 | |
| 20260905033228 | 63 | 307 | 2.0 | 2.0 | 0.00 | 0.00 | 0.00 | 100 | |
| 20260905032228 | 62 | 214 | 2.0 | 2.0 | 0.00 | 0.00 | 0.00 | 100 | |
| 20260905031227 | 62 | 212 | 2.0 | 2.0 | 0.00 | 0.00 | 0.00 | 100 | |
| 20260905030727 | 63 | 209 | 2.0 | 2.0 | 0.00 | 0.00 | 0.00 | 100 | |
| 20260905030227 | 63 | 247 | 2.0 | 3.0 | 0.00 | 0.00 | 0.00 | 100 | |
| 20260905025727 | 62 | 246 | 2.0 | 4.0 | 0.00 | 0.00 | 0.00 | 100 | |
| 20260905025226 | 63 | 228 | 3.0 | 4.0 | 0.00 | 0.00 | 0.00 | 100 | |
| 20260905024726 | 64 | 136 | 3.0 | 7.0 | 0.00 | 0.00 | 0.00 | 100 | |
| 20260905024226 | 62 | 179 | 2.0 | 2.0 | 0.00 | 0.00 | 0.00 | 100 | |
| 20260905023726 | 62 | 179 | 2.0 | 2.0 | 0.00 | 0.00 | 0.00 | 100 | |
| 20260905023226 | 63 | 179 | 2.0 | 2.0 | 0.00 | 0.00 | 0.00 | 100 | |
| 20260905022726 | 62 | 182 | 2.0 | 2.0 | 0.00 | 0.00 | 0.00 | 100 | |
| 20260905022225 | 63 | 179 | 2.0 | 2.0 | 0.00 | 0.00 | 0.00 | 100 | |
| 20260905021725 | 62 | 179 | 2.0 | 2.0 | 0.00 | 0.00 | 0.00 | 100 | |
| 20260905021225 | 63 | 180 | 2.0 | 2.0 | 0.00 | 0.00 | 0.00 | 100 | |
| 20260905020225 | 63 | 179 | 2.0 | 2.0 | 0.00 | 0.00 | 0.00 | 100 | |
| 20260905015724 | 64 | 179 | 2.0 | 2.0 | 0.00 | 0.00 | 0.00 | 100 | |
| 20260905015224 | 64 | 183 | 2.0 | 2.0 | 0.00 | 0.00 | 0.00 | 100 | |
| 20260905014724 | 64 | 167 | 2.0 | 2.0 | 0.00 | 0.00 | 0.00 | 100 | |
| 20260905014224 | 64 | 167 | 2.0 | 2.0 | 0.00 | 0.00 | 0.00 | 100 | |
| 20260905013724 | 64 | 161 | 3.0 | 3.0 | 0.00 | 0.00 | 0.00 | 100 | |
| 20260905013224 | 64 | 152 | 3.0 | 4.0 | 0.00 | 0.00 | 0.00 | 100 | |
| 20260905012723 | 65 | 232 | 2.0 | 2.0 | 0.00 | 0.00 | 0.00 | 100 | |
| 20260905011723 | 65 | 247 | 3.0 | 5.0 | 0.00 | 0.00 | 0.00 | 100 | |
| 20260905011223 | 65 | 236 | 2.0 | 3.0 | 0.00 | 0.00 | 0.00 | 100 | |
| 20260905005708 | 65 | 205 | 3.0 | 5.0 | 0.00 | 0.00 | 0.00 | 100 | |
| 20260905005208 | 66 | 202 | 5.0 | 7.0 | 0.00 | 0.00 | 0.00 | 100 | |
| 20260905004708 | 66 | 205 | 6.0 | 10.0 | 0.00 | 0.00 | 0.00 | 100 | |
| 20260905004208 | 66 | 204 | 5.0 | 8.0 | 0.00 | 0.00 | 0.00 | 100 | |
| 20260905003707 | 67 | 196 | 8.0 | 12.0 | 0.00 | 0.00 | 0.00 | 100 | |
| 20260905003207 | 67 | 222 | 6.0 | 11.0 | 0.00 | 0.00 | 0.00 | 100 | |
| 20260905002707 | 68 | 197 | 6.0 | 10.0 | 0.00 | 0.00 | 0.00 | 100 | |
| 20260905002207 | 68 | 213 | 7.0 | 11.0 | 0.00 | 0.00 | 0.00 | 100 | |
| 20260905001707 | 68 | 204 | 6.0 | 10.0 | 0.00 | 0.00 | 0.00 | 100 | |
| 20260905001206 | 68 | 202 | 8.0 | 11.0 | 0.00 | 0.00 | 0.00 | 100 | |
| 20260905000706 | 68 | 210 | 7.0 | 10.0 | 0.00 | 0.00 | 0.00 | 100 | |
| 20260905000206 | 68 | 198 | 5.0 | 8.0 | 0.00 | 0.00 | 0.00 | 100 | |
| 20260904235706 | 69 | 172 | 4.0 | 6.0 | 0.00 | 0.00 | 0.00 | 100 | |
| 20260904235206 | 69 | 193 | 5.0 | 10.0 | 0.00 | 0.00 | 0.00 | 100 | |
| 20260904234706 | 69 | 208 | 6.0 | 9.0 | 0.00 | 0.00 | 0.00 | 100 | |
| 20260904234205 | 69 | 216 | 5.0 | 8.0 | 0.00 | 0.00 | 0.00 | 100 | |
| 20260904233704 | 70 | 229 | 8.0 | 14.0 | 0.00 | 0.00 | 0.00 | 100 | |
| 20260904233201 | 70 | 221 | 11.0 | 17.0 | 0.00 | 0.00 | 0.00 | 100 | |
| 20260904232659 | 71 | 224 | 13.0 | 22.0 | 0.00 | 0.00 | 0.00 | 100 | |
| 20260904232154 | 71 | 227 | 15.0 | 41.0 | 0.00 | 0.00 | 0.00 | 100 | |
| 20260904231648 | 72 | 218 | 10.0 | 16.0 | 0.00 | 0.00 | 0.00 | 100 | |
| 20260904231146 | 73 | 210 | 10.0 | 17.0 | 0.00 | 0.00 | 0.00 | 100 | |
| 20260904230643 | 74 | 222 | 10.0 | 13.0 | 0.00 | 0.00 | 0.00 | 100 | |
| 20260904230143 | 73 | 198 | 7.0 | 14.0 | 0.00 | 0.00 | 0.00 | 100 | |
| 20260904225641 | 72 | 115 | 2.0 | 2.0 | 0.00 | 0.00 | 0.00 | 100 | |
| 20260904225141 | 73 | 116 | 2.0 | 2.0 | 0.00 | 0.00 | 0.00 | 100 | |
| 20260904224641 | 75 | 224 | 2.0 | 3.0 | 0.00 | 0.00 | 0.00 | 100 | |
| 20260904224141 | 76 | 168 | 4.0 | 11.0 | 0.00 | 0.00 | 0.00 | 100 | |
| 20260904223640 | 76 | 173 | 3.0 | 4.0 | 0.00 | 0.00 | 0.00 | 100 | |
| 20260904223130 | 76 | 166 | 4.0 | 6.0 | 0.00 | 0.00 | 0.00 | 100 | |
| 20260904222630 | 76 | 163 | 4.0 | 6.0 | 0.00 | 0.00 | 0.00 | 100 | |
| 20260904222130 | 76 | 158 | 6.0 | 10.0 | 0.00 | 0.00 | 0.00 | 100 | |
| 20260904221630 | 76 | 172 | 3.0 | 4.0 | 0.00 | 0.00 | 0.00 | 100 | |
| 20260904221129 | 76 | 163 | 7.0 | 21.0 | 0.00 | 0.00 | 0.00 | 100 | |
| 20260904220627 | 76 | 165 | 5.0 | 10.0 | 0.00 | 0.00 | 0.00 | 100 | |
| 20260904220127 | 76 | 160 | 5.0 | 7.0 | 0.00 | 0.00 | 0.00 | 100 | |
| 20260904215627 | 77 | 156 | 9.0 | 14.0 | 0.00 | 0.00 | 0.00 | 100 | |
| 20260904215127 | 76 | 156 | 7.0 | 9.0 | 0.00 | 0.00 | 0.00 | 100 | |
| 20260904214627 | 77 | 162 | 10.0 | 15.0 | 0.00 | 0.00 | 0.00 | 100 | |
| 20260904214126 | 76 | 164 | 6.0 | 9.0 | 0.00 | 0.00 | 0.00 | 100 | |
| 20260904213626 | 76 | 157 | 8.0 | 11.0 | 0.00 | 0.00 | 0.00 | 100 | |
| 20260904213126 | 76 | 168 | 5.0 | 8.0 | 0.00 | 0.00 | 0.00 | 100 | |
| 20260904212626 | 76 | 171 | 4.0 | 6.0 | 0.00 | 0.00 | 0.00 | 100 | |
| 20260904212126 | 76 | 171 | 4.0 | 6.0 | 0.00 | 0.00 | 0.00 | 100 | |
| 20260904211625 | 76 | 163 | 4.0 | 9.0 | 0.00 | 0.00 | 0.00 | 100 | |
| 20260904211125 | 77 | 166 | 5.0 | 9.0 | 0.00 | 0.00 | 0.00 | 100 | |
| 20260904210625 | 77 | 157 | 8.0 | 13.0 | 0.00 | 0.00 | 0.00 | 100 | |
| 20260904210125 | 77 | 156 | 9.0 | 14.0 | 0.00 | 0.00 | 0.00 | 100 | |
| 20260904205625 | 77 | 157 | 10.0 | 17.0 | 0.00 | 0.00 | 0.00 | 100 | |
| 20260904205125 | 77 | 159 | 10.0 | 13.0 | 0.00 | 0.00 | 0.00 | 100 | |
| 20260904204124 | 77 | 158 | 11.0 | 17.0 | 0.00 | 0.00 | 0.00 | 100 | |
| 20260904203624 | 76 | 161 | 5.0 | 11.0 | 0.00 | 0.00 | 0.00 | 100 | |
| 20260904203124 | 76 | 158 | 5.0 | 8.0 | 0.00 | 0.00 | 0.00 | 100 | |
| 20260904202624 | 77 | 170 | 7.0 | 11.0 | 0.00 | 0.00 | 0.00 | 100 | |
| 20260904202124 | 76 | 172 | 5.0 | 9.0 | 0.00 | 0.00 | 0.00 | 100 | |
| 20260904201123 | 72 | 45 | 4.0 | 4.0 | 0.00 | 0.00 | 0.00 | 100 | |
| 20260904200121 | 70 | 97 | 2.0 | 3.0 | 0.00 | 0.00 | 0.00 | 100 | |
| 20260904195607 | 70 | 102 | 3.0 | 4.0 | 0.00 | 0.00 | 0.00 | 100 | |
| 20260904195107 | 71 | 110 | 2.0 | 2.0 | 0.00 | 0.00 | 0.00 | 100 | |
| 20260904194607 | 71 | 114 | 2.0 | 2.0 | 0.00 | 0.00 | 0.00 | 100 | |
| 20260904194107 | 71 | 107 | 2.0 | 4.0 | 0.00 | 0.00 | 0.00 | 100 | |
| 20260904193607 | 71 | 131 | 3.0 | 3.0 | 0.00 | 0.00 | 0.00 | 100 | |
| 20260904193106 | 72 | 161 | 3.0 | 3.0 | 0.00 | 0.00 | 0.00 | 100 | |
| 20260904192606 | 73 | 161 | 3.0 | 3.0 | 0.00 | 0.00 | 0.00 | 100 | |
| 20260904192106 | 73 | 157 | 3.0 | 5.0 | 0.00 | 0.00 | 0.00 | 100 |